Tracking 33877 objects as of 19-Apr-2026
HD Live streaming from Space Station
objects crossing your sky now

DELTA 1 DEB

Track DELTA 1 DEB now!
10-day predictions


NORAD ID: 21754
Int'l Code: 1975-052JQ
Perigee: 1,076.6 km
Apogee: 1,191.4 km
Inclination: 100.1 °
Period: 107.8 minutes
Semi major axis: 7504 km
RCS: 0.011 m2 (small)
Launch date: June 12, 1975
Source: United States (US)
Launch site: AIR FORCE WESTERN TEST RANGE (AFWTR)

Note: This is SATELLITE DEBRIS
Your satellite tracking list
Your tracking list is empty




NASA's NSSDC Master Catalog

Two Line Element Set (TLE):
1 21754U 75052JQ  26109.05083846  .00000129  00000-0  33579-3 0  9992
2 21754 100.0508  34.1037 0076463 102.3905 269.3650 13.35302783689402
Source of the keplerian elements: AFSPC